GAP2787 RPLL-RPVP

Flight info

Callsign GAP2787
Flight time 0h 58m
Altitude 34000
Route BUCAL2R BUCAL M646 NOMYO NOMYO2W
Aircraft A320/M-SDE3FGHIRWY/LB1

Departure

Time 2026-04-15 12:09
Airport Ninoy Aquino International Airport (RPLL)

Arrival

Time 2026-04-15 13:07
Airport Puerto Princesa International Airport / PAF Antonio Bautista Air Base (RPVP)
Time Latitude Longitude Altitude Speed Heading
2026-04-15 11:50 14.50900 121.01361 82 ft 0 kts 329°
2026-04-15 11:56 14.50894 121.01365 82 ft 2 kts 329°
2026-04-15 11:56 14.50881 121.01372 82 ft 2 kts 329°
2026-04-15 11:57 14.50868 121.01381 82 ft 2 kts 329°
2026-04-15 11:57 14.50842 121.01397 82 ft 2 kts 329°
2026-04-15 11:57 14.50829 121.01405 82 ft 2 kts 308°
2026-04-15 11:58 14.50822 121.01419 82 ft 2 kts 287°
2026-04-15 11:58 14.50820 121.01434 82 ft 2 kts 263°
2026-04-15 11:58 14.50824 121.01449 82 ft 2 kts 240°
2026-04-15 11:58 14.50832 121.01462 82 ft 2 kts 241°
2026-04-15 11:59 14.50839 121.01475 82 ft 2 kts 240°
2026-04-15 11:59 14.50846 121.01487 82 ft 0 kts 240°
2026-04-15 11:59 14.50846 121.01488 82 ft 0 kts 240°
2026-04-15 12:02 14.50844 121.01484 82 ft 2 kts 241°
2026-04-15 12:02 14.50827 121.01453 82 ft 7 kts 241°
2026-04-15 12:02 14.50793 121.01390 82 ft 12 kts 241°
2026-04-15 12:02 14.50750 121.01321 82 ft 8 kts 217°
2026-04-15 12:03 14.50707 121.01318 82 ft 6 kts 159°
2026-04-15 12:03 14.50667 121.01312 82 ft 6 kts 229°
2026-04-15 12:03 14.50640 121.01266 82 ft 8 kts 240°
2026-04-15 12:03 14.50610 121.01212 82 ft 9 kts 240°
2026-04-15 12:04 14.50577 121.01152 82 ft 10 kts 240°
2026-04-15 12:04 14.50539 121.01083 82 ft 11 kts 240°
2026-04-15 12:04 14.50498 121.01011 82 ft 12 kts 240°
2026-04-15 12:04 14.50454 121.00932 82 ft 12 kts 240°
2026-04-15 12:05 14.50408 121.00850 82 ft 13 kts 239°
2026-04-15 12:05 14.50361 121.00764 82 ft 14 kts 241°
2026-04-15 12:05 14.50311 121.00674 82 ft 14 kts 238°
2026-04-15 12:05 14.50258 121.00581 82 ft 15 kts 240°
2026-04-15 12:06 14.50206 121.00487 82 ft 15 kts 240°
2026-04-15 12:06 14.50153 121.00391 82 ft 15 kts 240°
2026-04-15 12:06 14.50098 121.00291 82 ft 15 kts 241°
2026-04-15 12:06 14.50042 121.00191 82 ft 16 kts 240°
2026-04-15 12:07 14.49995 121.00106 82 ft 11 kts 240°
2026-04-15 12:07 14.49955 121.00034 82 ft 12 kts 241°
2026-04-15 12:07 14.49911 120.99966 82 ft 8 kts 210°
2026-04-15 12:07 14.49850 120.99980 82 ft 9 kts 150°
2026-04-15 12:08 14.49802 121.00019 82 ft 7 kts 109°
2026-04-15 12:08 14.49810 121.00060 82 ft 5 kts 58°
2026-04-15 12:08 14.49824 121.00085 82 ft 4 kts 60°
2026-04-15 12:08 14.49843 121.00120 82 ft 15 kts 61°
2026-04-15 12:09 14.50048 121.00490 82 ft 101 kts 60°
2026-04-15 12:09 14.50520 121.01334 134 ft 161 kts 59°
2026-04-15 12:09 14.51090 121.02351 750 ft 168 kts 62°
2026-04-15 12:09 14.51670 121.03408 1538 ft 172 kts 62°
2026-04-15 12:10 14.52260 121.04479 2270 ft 180 kts 62°
2026-04-15 12:10 14.52900 121.05639 2773 ft 193 kts 61°
2026-04-15 12:10 14.53620 121.06941 3113 ft 217 kts 60°
2026-04-15 12:10 14.54400 121.08337 3573 ft 235 kts 60°
2026-04-15 12:11 14.55245 121.09852 4056 ft 253 kts 60°
2026-04-15 12:11 14.56103 121.11500 4634 ft 267 kts 69°
2026-04-15 12:11 14.56286 121.13393 5440 ft 272 kts 99°
2026-04-15 12:11 14.55555 121.15164 6300 ft 276 kts 126°
2026-04-15 12:12 14.54227 121.16602 7071 ft 281 kts 134°
2026-04-15 12:12 14.52801 121.18031 7821 ft 286 kts 133°
2026-04-15 12:12 14.51376 121.19473 8589 ft 290 kts 133°
2026-04-15 12:12 14.49935 121.20950 9326 ft 293 kts 133°
2026-04-15 12:13 14.48459 121.22392 10013 ft 298 kts 141°
2026-04-15 12:13 14.46546 121.23312 10603 ft 310 kts 166°
2026-04-15 12:13 14.44354 121.23331 11138 ft 323 kts 192°
2026-04-15 12:13 14.42241 121.22364 11469 ft 339 kts 218°
2026-04-15 12:14 14.40547 121.20575 11769 ft 354 kts 230°
2026-04-15 12:14 14.38914 121.18618 11991 ft 370 kts 230°
2026-04-15 12:14 14.37186 121.16579 12383 ft 382 kts 229°
2026-04-15 12:14 14.35406 121.14514 12944 ft 386 kts 229°
2026-04-15 12:15 14.33587 121.12425 13574 ft 388 kts 228°
2026-04-15 12:15 14.31773 121.10349 14180 ft 391 kts 228°
2026-04-15 12:15 14.29927 121.08260 14727 ft 394 kts 226°
2026-04-15 12:15 14.27950 121.06300 15260 ft 397 kts 221°
2026-04-15 12:16 14.25785 121.04511 15809 ft 399 kts 216°
2026-04-15 12:16 14.23493 121.02859 16351 ft 403 kts 214°
2026-04-15 12:16 14.21172 121.01231 16856 ft 406 kts 213°
2026-04-15 12:16 14.18841 120.99603 17328 ft 409 kts 213°
2026-04-15 12:17 14.16471 120.97942 17825 ft 412 kts 213°
2026-04-15 12:17 14.14096 120.96275 18307 ft 415 kts 213°
2026-04-15 12:17 14.11686 120.94582 18788 ft 418 kts 213°
2026-04-15 12:17 14.09286 120.92893 19272 ft 420 kts 213°
2026-04-15 12:18 14.06862 120.91187 19738 ft 423 kts 214°
2026-04-15 12:18 14.04437 120.89478 20195 ft 425 kts 214°
2026-04-15 12:18 14.01988 120.87753 20636 ft 428 kts 214°
2026-04-15 12:18 13.99494 120.85995 21070 ft 430 kts 214°
2026-04-15 12:19 13.97034 120.84264 21498 ft 433 kts 213°
2026-04-15 12:19 13.94519 120.82496 21923 ft 435 kts 213°
2026-04-15 12:19 13.92005 120.80729 22336 ft 438 kts 213°
2026-04-15 12:19 13.89502 120.78970 22738 ft 440 kts 213°
2026-04-15 12:20 13.86939 120.77174 23140 ft 443 kts 213°
2026-04-15 12:20 13.84401 120.75397 23531 ft 445 kts 213°
2026-04-15 12:20 13.81826 120.73591 23920 ft 447 kts 213°
2026-04-15 12:20 13.79265 120.71793 24303 ft 449 kts 214°
2026-04-15 12:21 13.76677 120.69974 24669 ft 452 kts 214°
2026-04-15 12:21 13.74067 120.68139 24985 ft 455 kts 214°
2026-04-15 12:21 13.71441 120.66293 25306 ft 458 kts 214°
2026-04-15 12:21 13.68806 120.64440 25648 ft 460 kts 214°
2026-04-15 12:22 13.66147 120.62573 25989 ft 461 kts 214°
2026-04-15 12:22 13.63517 120.60729 26305 ft 463 kts 213°
2026-04-15 12:22 13.60778 120.58945 26610 ft 465 kts 210°
2026-04-15 12:22 13.57945 120.57317 26922 ft 466 kts 207°
2026-04-15 12:23 13.55001 120.55830 27215 ft 468 kts 205°
2026-04-15 12:23 13.52069 120.54417 27506 ft 469 kts 205°
2026-04-15 12:23 13.49097 120.52992 27795 ft 471 kts 205°
2026-04-15 12:23 13.46118 120.51562 28058 ft 472 kts 205°
2026-04-15 12:24 13.43110 120.50117 28310 ft 474 kts 205°
2026-04-15 12:24 13.40138 120.48689 28550 ft 475 kts 205°
2026-04-15 12:24 13.37145 120.47250 28823 ft 476 kts 205°
2026-04-15 12:24 13.34125 120.45795 29168 ft 475 kts 205°
2026-04-15 12:25 13.31147 120.44363 29526 ft 473 kts 205°
2026-04-15 12:25 13.28169 120.42934 29884 ft 472 kts 205°
2026-04-15 12:25 13.25204 120.41510 30232 ft 471 kts 205°
2026-04-15 12:25 13.22222 120.40079 30580 ft 470 kts 205°
2026-04-15 12:26 13.19236 120.38645 30919 ft 469 kts 205°
2026-04-15 12:26 13.16303 120.37238 31247 ft 468 kts 205°
2026-04-15 12:26 13.13351 120.35822 31583 ft 467 kts 205°
2026-04-15 12:26 13.10413 120.34411 31909 ft 466 kts 205°
2026-04-15 12:27 13.07490 120.32994 32209 ft 465 kts 205°
2026-04-15 12:27 13.04572 120.31579 32461 ft 466 kts 205°
2026-04-15 12:27 13.01621 120.30152 32702 ft 467 kts 205°
2026-04-15 12:27 12.98671 120.28732 32933 ft 468 kts 204°
2026-04-15 12:28 12.95708 120.27307 33160 ft 469 kts 204°
2026-04-15 12:28 12.92763 120.25895 33388 ft 470 kts 204°
2026-04-15 12:28 12.89809 120.24479 33614 ft 470 kts 204°
2026-04-15 12:28 12.86828 120.23057 33824 ft 471 kts 204°
2026-04-15 12:29 12.83828 120.21629 33860 ft 472 kts 204°
2026-04-15 12:29 12.77884 120.18796 33875 ft 472 kts 204°
2026-04-15 12:30 12.72900 120.16416 33880 ft 473 kts 204°
2026-04-15 12:30 12.65944 120.13093 33885 ft 473 kts 204°
2026-04-15 12:31 12.59947 120.10228 33881 ft 473 kts 204°
2026-04-15 12:31 12.54016 120.07396 33881 ft 473 kts 204°
2026-04-15 12:32 12.48013 120.04532 33880 ft 474 kts 204°
2026-04-15 12:32 12.42018 120.01673 33882 ft 474 kts 204°
2026-04-15 12:33 12.36061 119.98834 33883 ft 474 kts 204°
2026-04-15 12:33 12.30045 119.95967 33883 ft 473 kts 204°
2026-04-15 12:34 12.24014 119.93095 33885 ft 473 kts 204°
2026-04-15 12:34 12.18023 119.90243 33884 ft 473 kts 204°
2026-04-15 12:35 12.12037 119.87395 33883 ft 473 kts 204°
2026-04-15 12:35 12.06063 119.84556 33882 ft 474 kts 204°
2026-04-15 12:36 12.00044 119.81698 33881 ft 475 kts 205°
2026-04-15 12:36 11.94051 119.78851 33881 ft 475 kts 205°
2026-04-15 12:37 11.88057 119.76008 33882 ft 473 kts 205°
2026-04-15 12:37 11.82059 119.73175 33881 ft 472 kts 204°
2026-04-15 12:38 11.76067 119.70338 33881 ft 472 kts 204°
2026-04-15 12:38 11.70111 119.67516 33881 ft 473 kts 205°
2026-04-15 12:39 11.64121 119.64724 33880 ft 474 kts 204°
2026-04-15 12:39 11.58093 119.61931 33879 ft 474 kts 204°
2026-04-15 12:40 11.52079 119.59142 33878 ft 473 kts 204°
2026-04-15 12:40 11.46109 119.56374 33880 ft 472 kts 204°
2026-04-15 12:41 11.40105 119.53592 33630 ft 472 kts 204°
2026-04-15 12:41 11.37082 119.52191 33342 ft 469 kts 204°
2026-04-15 12:41 11.34144 119.50829 32996 ft 467 kts 204°
2026-04-15 12:41 11.31201 119.49465 32406 ft 466 kts 204°
2026-04-15 12:42 11.28241 119.48093 31741 ft 465 kts 204°
2026-04-15 12:42 11.25286 119.46725 30997 ft 466 kts 204°
2026-04-15 12:42 11.22335 119.45359 30198 ft 467 kts 204°
2026-04-15 12:42 11.19380 119.43992 29371 ft 468 kts 204°
2026-04-15 12:43 11.16404 119.42615 28509 ft 470 kts 204°
2026-04-15 12:43 11.13425 119.41236 27787 ft 468 kts 204°
2026-04-15 12:43 11.10447 119.39857 27248 ft 463 kts 204°
2026-04-15 12:43 11.07513 119.38501 26698 ft 458 kts 204°
2026-04-15 12:44 11.04612 119.37161 26149 ft 454 kts 204°
2026-04-15 12:44 11.01744 119.35835 25599 ft 451 kts 204°
2026-04-15 12:44 10.98896 119.34518 25051 ft 447 kts 204°
2026-04-15 12:44 10.96042 119.33186 24502 ft 444 kts 204°
2026-04-15 12:45 10.93251 119.31883 23958 ft 441 kts 204°
2026-04-15 12:45 10.90433 119.30570 23412 ft 439 kts 204°
2026-04-15 12:45 10.87674 119.29292 22873 ft 436 kts 203°
2026-04-15 12:45 10.84894 119.28012 22325 ft 434 kts 203°
2026-04-15 12:46 10.82143 119.26746 21789 ft 432 kts 203°
2026-04-15 12:46 10.79418 119.25491 21255 ft 430 kts 203°
2026-04-15 12:46 10.76673 119.24228 20726 ft 428 kts 203°
2026-04-15 12:46 10.73965 119.22980 20200 ft 426 kts 203°
2026-04-15 12:47 10.71263 119.21736 19677 ft 423 kts 203°
2026-04-15 12:47 10.68566 119.20493 19151 ft 420 kts 203°
2026-04-15 12:47 10.65925 119.19276 18634 ft 418 kts 203°
2026-04-15 12:47 10.63275 119.18055 18105 ft 415 kts 202°
2026-04-15 12:48 10.60638 119.16841 17581 ft 413 kts 202°
2026-04-15 12:48 10.58032 119.15640 17060 ft 410 kts 202°
2026-04-15 12:48 10.55408 119.14433 16537 ft 408 kts 202°
2026-04-15 12:48 10.52841 119.13252 16023 ft 405 kts 202°
2026-04-15 12:49 10.51134 119.12467 15680 ft 403 kts 202°
2026-04-15 12:49 10.47720 119.10897 14991 ft 399 kts 203°
2026-04-15 12:49 10.45186 119.09733 14474 ft 397 kts 203°
2026-04-15 12:49 10.42691 119.08586 13967 ft 394 kts 203°
2026-04-15 12:50 10.40195 119.07438 13458 ft 392 kts 203°
2026-04-15 12:50 10.37719 119.06300 12954 ft 389 kts 204°
2026-04-15 12:50 10.35325 119.05076 12453 ft 386 kts 208°
2026-04-15 12:50 10.33015 119.03632 11944 ft 384 kts 214°
2026-04-15 12:51 10.30852 119.02052 11444 ft 381 kts 216°
2026-04-15 12:51 10.28755 119.00470 10943 ft 379 kts 216°
2026-04-15 12:51 10.26642 118.98869 10519 ft 373 kts 216°
2026-04-15 12:51 10.24589 118.97320 10377 ft 358 kts 216°
2026-04-15 12:52 10.22634 118.95849 10259 ft 343 kts 216°
2026-04-15 12:52 10.20742 118.94428 10156 ft 329 kts 216°
2026-04-15 12:52 10.18937 118.93075 10068 ft 315 kts 216°
2026-04-15 12:52 10.17192 118.91767 9878 ft 307 kts 216°
2026-04-15 12:53 10.15478 118.90485 9524 ft 305 kts 215°
2026-04-15 12:53 10.13606 118.89531 9132 ft 302 kts 189°
2026-04-15 12:53 10.11553 118.89610 8806 ft 294 kts 162°
2026-04-15 12:53 10.09593 118.90243 8490 ft 290 kts 159°
2026-04-15 12:54 10.08333 118.90662 8280 ft 289 kts 159°
2026-04-15 12:54 10.05766 118.91486 7857 ft 286 kts 160°
2026-04-15 12:54 10.03863 118.92072 7542 ft 284 kts 161°
2026-04-15 12:54 10.01979 118.92638 7234 ft 281 kts 161°
2026-04-15 12:55 10.00098 118.93200 6925 ft 279 kts 161°
2026-04-15 12:55 9.98229 118.93757 6613 ft 277 kts 161°
2026-04-15 12:55 9.96401 118.94301 6297 ft 275 kts 161°
2026-04-15 12:55 9.94565 118.94848 6032 ft 271 kts 162°
2026-04-15 12:56 9.92756 118.95387 5802 ft 265 kts 161°
2026-04-15 12:56 9.91008 118.95908 5533 ft 261 kts 161°
2026-04-15 12:56 9.89279 118.96422 5235 ft 255 kts 161°
2026-04-15 12:56 9.87583 118.96923 4892 ft 247 kts 161°
2026-04-15 12:57 9.85951 118.97405 4536 ft 239 kts 161°
2026-04-15 12:57 9.84383 118.97868 4275 ft 232 kts 161°
2026-04-15 12:57 9.82835 118.98325 4013 ft 229 kts 163°
2026-04-15 12:57 9.81274 118.98608 3719 ft 222 kts 173°
2026-04-15 12:58 9.79791 118.98644 3611 ft 205 kts 180°
2026-04-15 12:58 9.78375 118.98587 3368 ft 201 kts 181°
2026-04-15 12:58 9.76966 118.98519 3134 ft 200 kts 181°
2026-04-15 12:58 9.75584 118.98440 3089 ft 201 kts 185°
2026-04-15 12:59 9.73484 118.96899 2896 ft 179 kts 248°
2026-04-15 12:59 9.73237 118.95737 2861 ft 167 kts 272°
2026-04-15 12:59 9.73291 118.94527 2887 ft 168 kts 277°
2026-04-15 13:00 9.73385 118.93351 2822 ft 169 kts 277°
2026-04-15 13:00 9.73470 118.92157 2737 ft 168 kts 276°
2026-04-15 13:00 9.73541 118.90988 2656 ft 167 kts 275°
2026-04-15 13:00 9.73601 118.89821 2525 ft 172 kts 275°
2026-04-15 13:01 9.73663 118.88515 2307 ft 193 kts 274°
2026-04-15 13:01 9.73725 118.87141 2033 ft 195 kts 274°
2026-04-15 13:01 9.73785 118.85772 1761 ft 192 kts 274°
2026-04-15 13:01 9.73840 118.84457 1503 ft 185 kts 274°
2026-04-15 13:02 9.73895 118.83154 1265 ft 186 kts 274°
2026-04-15 13:02 9.73954 118.81828 1045 ft 185 kts 275°
2026-04-15 13:02 9.74314 118.80615 995 ft 181 kts 306°
2026-04-15 13:02 9.74861 118.79943 1014 ft 182 kts 315°
2026-04-15 13:03 9.76066 118.78721 1004 ft 182 kts 318°
2026-04-15 13:03 9.76983 118.77826 999 ft 182 kts 319°
2026-04-15 13:03 9.77890 118.76911 1002 ft 183 kts 311°
2026-04-15 13:03 9.78356 118.75789 986 ft 166 kts 280°
2026-04-15 13:04 9.78465 118.74604 993 ft 166 kts 275°
2026-04-15 13:04 9.78521 118.73435 1001 ft 166 kts 274°
2026-04-15 13:04 9.78562 118.72266 998 ft 166 kts 269°
2026-04-15 13:04 9.78317 118.71136 1036 ft 164 kts 243°
2026-04-15 13:05 9.77620 118.70219 1156 ft 160 kts 219°
2026-04-15 13:05 9.76704 118.69685 1284 ft 146 kts 192°
2026-04-15 13:05 9.75714 118.69642 1291 ft 140 kts 161°
2026-04-15 13:05 9.74879 118.70094 1237 ft 136 kts 131°
2026-04-15 13:06 9.74352 118.70888 994 ft 136 kts 102°
2026-04-15 13:06 9.74309 118.71855 824 ft 138 kts 86°
2026-04-15 13:06 9.74341 118.72827 570 ft 139 kts 89°
2026-04-15 13:06 9.74303 118.73803 300 ft 135 kts 92°
2026-04-15 13:07 9.74258 118.74775 142 ft 143 kts 91°
2026-04-15 13:07 9.74216 118.75741 76 ft 117 kts 94°
2026-04-15 13:07 9.74190 118.76259 75 ft 33 kts 92°
2026-04-15 13:07 9.74188 118.76361 75 ft 7 kts 83°
2026-04-15 13:08 9.74193 118.76409 75 ft 6 kts 92°
2026-04-15 13:08 9.74184 118.76444 75 ft 5 kts 130°
2026-04-15 13:08 9.74176 118.76459 75 ft 1 kts 54°
2026-04-15 13:08 9.74183 118.76455 75 ft 2 kts 290°
2026-04-15 13:09 9.74185 118.76422 75 ft 6 kts 272°
2026-04-15 13:09 9.74187 118.76367 75 ft 9 kts 272°
2026-04-15 13:09 9.74190 118.76293 75 ft 11 kts 272°
2026-04-15 13:09 9.74194 118.76204 75 ft 13 kts 272°
2026-04-15 13:10 9.74198 118.76109 75 ft 14 kts 272°
2026-04-15 13:10 9.74202 118.76006 75 ft 14 kts 272°
2026-04-15 13:10 9.74207 118.75899 75 ft 15 kts 272°
2026-04-15 13:10 9.74212 118.75789 75 ft 16 kts 272°
2026-04-15 13:11 9.74217 118.75673 75 ft 16 kts 272°
2026-04-15 13:11 9.74221 118.75553 75 ft 17 kts 272°
2026-04-15 13:11 9.74226 118.75432 75 ft 17 kts 272°
2026-04-15 13:11 9.74231 118.75340 75 ft 12 kts 273°
2026-04-15 13:12 9.74243 118.75270 75 ft 7 kts 308°
2026-04-15 13:12 9.74296 118.75253 75 ft 8 kts
2026-04-15 13:12 9.74358 118.75256 75 ft 7 kts
2026-04-15 13:12 9.74399 118.75244 75 ft 6 kts 309°
2026-04-15 13:13 9.74406 118.75201 75 ft 3 kts 272°
2026-04-15 13:13 9.74407 118.75170 75 ft 5 kts 272°
2026-04-15 13:13 9.74409 118.75127 75 ft 3 kts 273°
2026-04-15 13:13 9.74422 118.75113 75 ft 3 kts 347°
2026-04-15 13:14 9.74443 118.75114 75 ft 3 kts
2026-04-15 13:14 9.74464 118.75115 75 ft 3 kts
2026-04-15 13:14 9.74485 118.75116 75 ft 3 kts
2026-04-15 13:14 9.74502 118.75117 75 ft 2 kts
2026-04-15 13:15 9.74506 118.75117 75 ft 0 kts